DW4805 Weather Reports


time (UTC)temp
C
wind
direction
speed
KPH
gust
KPH
rain 1hr
cm
rain 24hr
cm
rain mn
cm
humidity
%
barometer
mb
20260906230108 36 118 6.4 17.7 0.00 0.00 0.00 39 1011.2
20260906224604 36 102 6.4 14.5 0.00 0.00 0.00 39 1011.2
20260906223103 36 111 6.4 16.1 0.00 0.00 0.00 40 1011.3
20260906221604 36 89 6.4 14.5 0.00 0.00 0.00 40 1011.3
20260906220104 36 110 12.9 19.3 0.00 0.00 0.00 40 1011.5
20260906214603 36 121 4.8 16.1 0.00 0.00 0.00 40 1011.5
20260906213103 36 61 8.0 16.1 0.00 0.00 0.00 40 1011.7
20260906211607 36 93 11.3 19.3 0.00 0.00 0.00 40 1011.9
20260906210114 36 117 9.7 14.5 0.00 0.00 0.00 40 1012.1
20260906204604 36 115 9.7 24.1 0.00 0.00 0.00 41 1012.3
20260906203105 36 76 4.8 20.9 0.00 0.00 0.00 41 1012.4
20260906201607 36 123 9.7 20.9 0.00 0.00 0.00 41 1012.5
20260906200119 36 67 6.4 22.5 0.00 0.00 0.00 41 1012.7
20260906194620 36 102 9.7 24.1 0.00 0.00 0.00 42 1012.7
20260906193104 36 92 3.2 19.3 0.00 0.00 0.00 42 1012.9
20260906191604 35 136 9.7 19.3 0.00 0.00 0.00 42 1013.1
20260906190145 35 74 11.3 19.3 0.00 0.00 0.00 46 1013.3
20260906184603 35 97 6.4 16.1 0.00 0.00 0.00 45 1013.4
20260906183111 35 106 9.7 20.9 0.00 0.00 0.00 45 1013.5
20260906181601 34 81 6.4 16.1 0.00 0.00 0.00 48 1013.8
20260906174607 34 86 6.4 17.7 0.00 0.00 0.00 47 1014.2
20260906173120 34 82 6.4 16.1 0.00 0.00 0.00 49 1014.6
20260906171603 33 107 9.7 20.9 0.00 0.00 0.00 49 1014.9
20260906170110 33 94 3.2 14.5 0.00 0.00 0.00 50 1015.1
20260906164608 33 107 1.6 9.7 0.00 0.00 0.00 52 1015.2
20260906163106 33 111 3.2 11.3 0.00 0.00 0.00 53 1015.2
20260906161600 32 341 4.8 12.9 0.00 0.00 0.00 57 1015.2
20260906154615 32 88 1.6 11.3 0.00 0.00 0.00 60 1015.2
20260906153104 31 93 6.4 11.3 0.00 0.00 0.00 64 1015.1
20260906151610 31 96 1.6 6.4 0.00 0.00 0.00 64 1015.0
20260906144603 28 129 3.2 9.7 0.00 0.00 0.00 70 1014.8
20260906143113 28 91 1.6 6.4 0.00 0.00 0.00 71 1014.8
20260906141603 27 177 3.2 6.4 0.00 0.00 0.00 74 1014.9
20260906134609 27 72 3.2 6.4 0.00 0.00 0.00 77 1014.8
20260906133119 26 113 4.8 9.7 0.00 0.00 0.00 80 1014.7
20260906131605 26 82 3.2 6.4 0.00 0.00 0.00 80 1014.6
20260906130115 25 117 1.6 4.8 0.00 0.00 0.00 80 1014.6
20260906124603 25 77 0.0 3.2 0.00 0.00 0.00 83 1014.5
20260906123104 24 113 1.6 3.2 0.00 0.00 0.00 85 1014.4
20260906121601 23 0 0.0 0.0 0.00 0.00 0.00 86 1014.2
20260906120107 23 0 0.0 3.2 0.00 0.00 0.00 86 1014.0
20260906114603 23 0 0.0 0.0 0.00 0.00 0.00 87 1013.8
20260906113103 23 0 0.0 3.2 0.00 0.00 0.00 86 1013.8
20260906111559 23 0 0.0 1.6 0.00 0.00 0.00 87 1013.7
20260906104602 23 223 1.6 3.2 0.00 0.00 0.00 86 1013.4
20260906103101 24 0 0.0 3.2 0.00 0.00 0.00 85 1013.3
20260906101600 24 0 0.0 0.0 0.00 0.00 0.00 84 1013.4
20260906100105 24 0 0.0 3.2 0.00 0.00 0.00 83 1013.2
20260906094609 24 0 0.0 3.2 0.00 0.00 0.00 83 1013.1
20260906093118 25 186 0.0 3.2 0.00 0.00 0.00 82 1013.0
20260906091603 25 0 0.0 3.2 0.00 0.00 0.00 79 1013.0
20260906090137 26 0 0.0 3.2 0.00 0.00 0.00 78 1012.9
20260906084625 25 162 1.6 3.2 0.00 0.00 0.00 79 1012.7
20260906083103 25 218 0.0 3.2 0.00 0.00 0.00 78 1012.8
20260906081603 26 294 0.0 4.8 0.00 0.00 0.00 78 1012.8
20260906080108 26 181 3.2 8.0 0.00 0.00 0.00 75 1013.0
20260906074603 26 161 1.6 8.0 0.00 0.00 0.00 75 1013.2
20260906073101 27 111 4.8 9.7 0.00 0.00 0.00 74 1013.1
20260906071603 27 171 4.8 11.3 0.00 0.00 0.00 74 1013.0
20260906070105 27 113 4.8 9.7 0.00 0.00 0.00 73 1013.2
20260906064602 27 106 3.2 9.7 0.00 0.00 0.00 73 1013.4
20260906063104 27 142 3.2 6.4 0.00 0.00 0.00 73 1013.5
20260906061607 27 139 1.6 6.4 0.00 0.00 0.00 72 1013.5
20260906054606 27 171 0.0 3.2 0.00 0.00 0.00 72 1013.4
20260906053119 27 167 1.6 4.8 0.00 0.00 0.00 71 1013.4
20260906051603 28 162 1.6 6.4 0.00 0.00 0.00 71 1013.5
20260906050106 28 171 1.6 8.0 0.00 0.00 0.00 68 1013.5
20260906044621 28 168 1.6 6.4 0.00 0.00 0.00 68 1013.4
20260906043105 28 0 1.6 6.4 0.00 0.00 0.00 69 1013.3
20260906041604 28 125 1.6 6.4 0.00 0.00 0.00 69 1013.2
20260906040108 29 165 1.6 9.7 0.00 0.00 0.00 69 1013.1
20260906034608 29 122 3.2 11.3 0.00 0.00 0.00 67 1013.2
20260906033105 30 123 6.4 14.5 0.00 0.00 0.00 66 1013.3
20260906031607 30 133 6.4 14.5 0.00 0.00 0.00 65 1013.3
20260906030107 30 117 6.4 16.1 0.00 0.00 0.00 64 1013.2
20260906024624 30 126 9.7 16.1 0.00 0.00 0.00 63 1013.0
20260906023106 30 110 9.7 16.1 0.00 0.00 0.00 60 1012.7
20260906021605 31 130 11.3 17.7 0.00 0.00 0.00 59 1012.6
20260906020106 31 101 14.5 22.5 0.00 0.00 0.00 55 1012.4
20260906014606 32 92 14.5 27.4 0.00 0.00 0.00 52 1012.1
20260906013106 33 108 6.4 14.5 0.00 0.00 0.00 49 1011.6
20260906011604 33 140 8.0 12.9 0.00 0.00 0.00 47 1011.4
20260906010132 33 121 9.7 19.3 0.00 0.00 0.00 46 1011.2
20260906004608 34 117 9.7 20.9 0.00 0.00 0.00 45 1011.4
20260906003107 35 112 4.8 14.5 0.00 0.00 0.00 42 1011.3
20260906001615 35 119 6.4 11.3 0.00 0.00 0.00 42 1011.2
20260906000104 35 126 3.2 12.9 0.00 0.00 0.00 41 1011.1
20260905234608 35 83 8.0 14.5 0.00 0.00 0.00 41 1011.1
20260905233106 35 122 9.7 16.1 0.00 0.00 0.00 40 1011.0
20260905231604 36 65 9.7 12.9 0.00 0.00 0.00 38 1011.0